| time (UTC) | temp F | wind direction | speed MPH | gust MPH | rain 1hr in | rain 24hr in | rain mn in | humidity % | barometer mb |
| 20260507105003 | 57 | 50 | 3.0 | 8.0 | 0.00 | 0.00 | 0.00 | 62 | 1018.1 |
| 20260507104520 | 57 | 119 | 4.0 | 8.0 | 0.00 | 0.00 | 0.00 | 60 | 1018.0 |
| 20260507104010 | 57 | 88 | 2.0 | 6.0 | 0.00 | 0.00 | 0.00 | 62 | 1018.0 |
| 20260507103503 | 57 | 73 | 2.0 | 8.0 | 0.00 | 0.00 | 0.00 | 61 | 1018.0 |
| 20260507103008 | 57 | 126 | 2.0 | 10.0 | 0.00 | 0.00 | 0.00 | 62 | 1018.1 |
| 20260507102503 | 57 | 101 | 4.0 | 10.0 | 0.00 | 0.00 | 0.00 | 62 | 1018.0 |
| 20260507102007 | 57 | 140 | 3.0 | 8.0 | 0.00 | 0.00 | 0.00 | 61 | 1018.0 |
| 20260507101521 | 57 | 140 | 3.0 | 8.0 | 0.00 | 0.00 | 0.00 | 60 | 1018.0 |
| 20260507101011 | 57 | 103 | 2.0 | 7.0 | 0.00 | 0.00 | 0.00 | 61 | 1018.0 |
| 20260507100507 | 57 | 107 | 3.0 | 7.0 | 0.00 | 0.00 | 0.00 | 62 | 1018.0 |
| 20260507100032 | 57 | 135 | 2.0 | 7.0 | 0.00 | 0.00 | 0.00 | 63 | 1017.9 |
| 20260507095507 | 56 | 121 | 2.0 | 7.0 | 0.00 | 0.00 | 0.00 | 63 | 1018.0 |
| 20260507095007 | 56 | 97 | 2.0 | 9.0 | 0.00 | 0.00 | 0.00 | 64 | 1018.0 |
| 20260507094523 | 56 | 115 | 3.0 | 7.0 | 0.00 | 0.00 | 0.00 | 62 | 1017.9 |
| 20260507094003 | 56 | 85 | 2.0 | 7.0 | 0.00 | 0.00 | 0.00 | 62 | 1017.9 |
| 20260507093510 | 56 | 174 | 2.0 | 7.0 | 0.00 | 0.00 | 0.00 | 63 | 1017.9 |
| 20260507093031 | 57 | 128 | 2.0 | 6.0 | 0.00 | 0.00 | 0.00 | 61 | 1017.8 |
| 20260507092512 | 57 | 62 | 2.0 | 6.0 | 0.00 | 0.00 | 0.00 | 60 | 1017.9 |
| 20260507092007 | 57 | 115 | 3.0 | 6.0 | 0.00 | 0.00 | 0.00 | 62 | 1017.7 |
| 20260507091511 | 56 | 142 | 1.0 | 8.0 | 0.00 | 0.00 | 0.00 | 61 | 1017.8 |
| 20260507091003 | 57 | 98 | 2.0 | 9.0 | 0.00 | 0.00 | 0.00 | 60 | 1017.9 |
| 20260507090507 | 57 | 130 | 3.0 | 9.0 | 0.00 | 0.00 | 0.00 | 61 | 1017.7 |
| 20260507090020 | 57 | 126 | 2.0 | 6.0 | 0.00 | 0.00 | 0.00 | 62 | 1017.7 |
| 20260507085506 | 56 | 75 | 2.0 | 6.0 | 0.00 | 0.00 | 0.00 | 63 | 1017.6 |
| 20260507085009 | 55 | 37 | 1.0 | 6.0 | 0.00 | 0.00 | 0.00 | 67 | 1017.6 |
| 20260507084538 | 54 | 65 | 2.0 | 6.0 | 0.00 | 0.00 | 0.00 | 65 | 1017.6 |
| 20260507084007 | 53 | 103 | 1.0 | 5.0 | 0.00 | 0.00 | 0.00 | 66 | 1017.6 |
| 20260507083510 | 53 | 112 | 1.0 | 5.0 | 0.00 | 0.00 | 0.00 | 66 | 1017.6 |
| 20260507083022 | 53 | 135 | 1.0 | 4.0 | 0.00 | 0.00 | 0.00 | 67 | 1017.6 |
| 20260507082506 | 53 | 94 | 1.0 | 4.0 | 0.00 | 0.00 | 0.00 | 67 | 1017.6 |
| 20260507082013 | 52 | 128 | 1.0 | 4.0 | 0.00 | 0.00 | 0.00 | 69 | 1017.6 |
| 20260507081529 | 52 | 98 | 2.0 | 4.0 | 0.00 | 0.00 | 0.00 | 69 | 1017.5 |
| 20260507081010 | 52 | 130 | 1.0 | 4.0 | 0.00 | 0.00 | 0.00 | 68 | 1017.5 |
| 20260507080507 | 52 | 119 | 2.0 | 4.0 | 0.00 | 0.00 | 0.00 | 68 | 1017.4 |
| 20260507080016 | 52 | 130 | 2.0 | 3.0 | 0.00 | 0.00 | 0.00 | 69 | 1017.4 |
| 20260507075506 | 52 | 100 | 1.0 | 3.0 | 0.00 | 0.00 | 0.00 | 69 | 1017.4 |
| 20260507075012 | 52 | 116 | 1.0 | 3.0 | 0.00 | 0.00 | 0.00 | 68 | 1017.3 |
| 20260507074522 | 52 | 58 | 1.0 | 4.0 | 0.00 | 0.00 | 0.00 | 69 | 1017.2 |
| 20260507074005 | 52 | 92 | 0.0 | 4.0 | 0.00 | 0.00 | 0.00 | 68 | 1017.3 |
| 20260507073506 | 52 | 44 | 1.0 | 4.0 | 0.00 | 0.00 | 0.00 | 66 | 1017.2 |
| 20260507073026 | 53 | 119 | 2.0 | 5.0 | 0.00 | 0.00 | 0.00 | 68 | 1017.3 |
| 20260507072509 | 53 | 138 | 2.0 | 5.0 | 0.00 | 0.00 | 0.00 | 69 | 1017.1 |
| 20260507072012 | 53 | 101 | 1.0 | 4.0 | 0.00 | 0.00 | 0.00 | 67 | 1017.1 |
| 20260507071520 | 53 | 84 | 1.0 | 4.0 | 0.00 | 0.00 | 0.00 | 68 | 1017.1 |
| 20260507071004 | 53 | 108 | 1.0 | 4.0 | 0.00 | 0.00 | 0.00 | 69 | 1017.1 |
| 20260507070504 | 52 | 92 | 1.0 | 6.0 | 0.00 | 0.00 | 0.00 | 69 | 1017.1 |
| 20260507070019 | 52 | 117 | 1.0 | 6.0 | 0.00 | 0.00 | 0.00 | 70 | 1017.1 |
| 20260507065502 | 52 | 69 | 1.0 | 3.0 | 0.00 | 0.00 | 0.00 | 71 | 1017.1 |
| 20260507065003 | 51 | 138 | 1.0 | 4.0 | 0.00 | 0.00 | 0.00 | 71 | 1017.1 |
| 20260507064513 | 51 | 121 | 1.0 | 4.0 | 0.00 | 0.00 | 0.00 | 70 | 1017.1 |
| 20260507064004 | 51 | 143 | 2.0 | 4.0 | 0.00 | 0.00 | 0.00 | 73 | 1017.0 |
| 20260507063506 | 50 | 107 | 1.0 | 3.0 | 0.00 | 0.00 | 0.00 | 74 | 1017.0 |
| 20260507063004 | 49 | 84 | 1.0 | 3.0 | 0.00 | 0.00 | 0.00 | 75 | 1017.1 |
| 20260507062503 | 49 | 145 | 1.0 | 3.0 | 0.00 | 0.00 | 0.00 | 75 | 1017.0 |
| 20260507062000 | 48 | 68 | 1.0 | 3.0 | 0.00 | 0.00 | 0.00 | 76 | 1017.0 |
| 20260507061508 | 48 | 32 | 0.0 | 3.0 | 0.00 | 0.00 | 0.00 | 77 | 1016.9 |
| 20260507061007 | 47 | 122 | 1.0 | 3.0 | 0.00 | 0.00 | 0.00 | 78 | 1016.9 |
| 20260507060504 | 47 | 36 | 1.0 | 3.0 | 0.00 | 0.00 | 0.00 | 79 | 1017.0 |
| 20260507060004 | 47 | 78 | 1.0 | 2.0 | 0.00 | 0.00 | 0.00 | 81 | 1016.9 |
| 20260507055506 | 46 | 305 | 0.0 | 2.0 | 0.00 | 0.00 | 0.00 | 82 | 1016.8 |
| 20260507055006 | 46 | 321 | 0.0 | 2.0 | 0.00 | 0.00 | 0.00 | 82 | 1016.8 |
| 20260507054505 | 46 | 321 | 0.0 | 2.0 | 0.00 | 0.00 | 0.00 | 82 | 1016.7 |
| 20260507054002 | 46 | 320 | 0.0 | 2.0 | 0.00 | 0.00 | 0.00 | 82 | 1016.6 |
| 20260507053507 | 46 | 340 | 0.0 | 2.0 | 0.00 | 0.00 | 0.00 | 82 | 1016.7 |
| 20260507053020 | 46 | 38 | 0.0 | 2.0 | 0.00 | 0.00 | 0.00 | 82 | 1016.6 |
| 20260507052504 | 46 | 44 | 0.0 | 2.0 | 0.00 | 0.00 | 0.00 | 82 | 1016.6 |
| 20260507052006 | 45 | 53 | 0.0 | 2.0 | 0.00 | 0.00 | 0.00 | 82 | 1016.6 |
| 20260507051504 | 45 | 14 | 0.0 | 2.0 | 0.00 | 0.00 | 0.00 | 82 | 1016.6 |
| 20260507051006 | 45 | 15 | 0.0 | 2.0 | 0.00 | 0.00 | 0.00 | 81 | 1016.5 |
| 20260507050503 | 45 | 15 | 0.0 | 2.0 | 0.00 | 0.00 | 0.00 | 81 | 1016.5 |
| 20260507050027 | 46 | 15 | 0.0 | 2.0 | 0.00 | 0.00 | 0.00 | 80 | 1016.5 |
| 20260507045506 | 46 | 21 | 0.0 | 2.0 | 0.00 | 0.00 | 0.00 | 80 | 1016.5 |
| 20260507045004 | 46 | 34 | 0.0 | 2.0 | 0.00 | 0.00 | 0.00 | 79 | 1016.4 |
| 20260507044519 | 46 | 69 | 0.0 | 2.0 | 0.00 | 0.00 | 0.00 | 79 | 1016.3 |
| 20260507044004 | 46 | 71 | 0.0 | 2.0 | 0.00 | 0.00 | 0.00 | 79 | 1016.3 |
| 20260507043506 | 46 | 26 | 0.0 | 2.0 | 0.00 | 0.00 | 0.00 | 79 | 1016.3 |
| 20260507043006 | 46 | 26 | 0.0 | 2.0 | 0.00 | 0.00 | 0.00 | 78 | 1016.3 |
| 20260507042508 | 46 | 26 | 0.0 | 2.0 | 0.00 | 0.00 | 0.00 | 78 | 1016.1 |
| 20260507042010 | 46 | 26 | 0.0 | 2.0 | 0.00 | 0.00 | 0.00 | 78 | 1016.1 |
| 20260507041507 | 46 | 75 | 0.0 | 3.0 | 0.00 | 0.00 | 0.00 | 78 | 1016.1 |
| 20260507041003 | 46 | 55 | 0.0 | 3.0 | 0.00 | 0.00 | 0.00 | 78 | 1016.1 |
| 20260507040504 | 46 | 50 | 1.0 | 3.0 | 0.00 | 0.00 | 0.00 | 78 | 1016.1 |
| 20260507040004 | 46 | 63 | 1.0 | 3.0 | 0.00 | 0.00 | 0.00 | 78 | 1016.0 |
| 20260507035504 | 46 | 58 | 0.0 | 3.0 | 0.00 | 0.00 | 0.00 | 78 | 1016.0 |
| 20260507035004 | 46 | 76 | 0.0 | 2.0 | 0.00 | 0.00 | 0.00 | 78 | 1016.0 |
| 20260507034505 | 46 | 63 | 0.0 | 3.0 | 0.00 | 0.00 | 0.00 | 78 | 1016.0 |
| 20260507034008 | 46 | 63 | 1.0 | 3.0 | 0.00 | 0.00 | 0.00 | 78 | 1015.9 |
| 20260507033504 | 46 | 52 | 1.0 | 2.0 | 0.00 | 0.00 | 0.00 | 78 | 1016.0 |
| 20260507033026 | 46 | 57 | 0.0 | 2.0 | 0.00 | 0.00 | 0.00 | 78 | 1015.9 |
| 20260507032503 | 46 | 57 | 0.0 | 2.0 | 0.00 | 0.00 | 0.00 | 77 | 1016.0 |
| 20260507032005 | 46 | 41 | 0.0 | 2.0 | 0.00 | 0.00 | 0.00 | 76 | 1015.9 |
| 20260507031506 | 46 | 46 | 0.0 | 2.0 | 0.00 | 0.00 | 0.00 | 76 | 1016.0 |
| 20260507031003 | 46 | 46 | 0.0 | 3.0 | 0.00 | 0.00 | 0.00 | 76 | 1016.0 |
| 20260507030503 | 46 | 49 | 0.0 | 3.0 | 0.00 | 0.00 | 0.00 | 76 | 1016.0 |
| 20260507030007 | 47 | 28 | 0.0 | 4.0 | 0.00 | 0.00 | 0.00 | 76 | 1016.0 |
| 20260507025502 | 47 | 36 | 1.0 | 4.0 | 0.00 | 0.00 | 0.00 | 76 | 1016.0 |
| 20260507025008 | 47 | 36 | 0.0 | 3.0 | 0.00 | 0.00 | 0.00 | 75 | 1016.0 |
| 20260507024515 | 47 | 27 | 1.0 | 4.0 | 0.00 | 0.00 | 0.00 | 75 | 1016.1 |
| 20260507024004 | 47 | 28 | 0.0 | 4.0 | 0.00 | 0.00 | 0.00 | 75 | 1016.1 |
| 20260507023505 | 47 | 48 | 1.0 | 4.0 | 0.00 | 0.00 | 0.00 | 75 | 1016.1 |
| 20260507023009 | 47 | 89 | 1.0 | 4.0 | 0.00 | 0.00 | 0.00 | 75 | 1016.0 |
| 20260507022506 | 47 | 39 | 1.0 | 4.0 | 0.00 | 0.00 | 0.00 | 76 | 1016.0 |
| 20260507022006 | 47 | 61 | 1.0 | 4.0 | 0.00 | 0.00 | 0.00 | 76 | 1016.0 |
| 20260507021512 | 47 | 28 | 1.0 | 4.0 | 0.00 | 0.00 | 0.00 | 77 | 1016.0 |
| 20260507021003 | 47 | 47 | 1.0 | 4.0 | 0.00 | 0.00 | 0.00 | 77 | 1015.9 |
| 20260507020506 | 47 | 90 | 0.0 | 2.0 | 0.00 | 0.00 | 0.00 | 76 | 1015.9 |
| 20260507020005 | 47 | 40 | 0.0 | 4.0 | 0.00 | 0.00 | 0.00 | 76 | 1015.8 |
| 20260507015506 | 47 | 55 | 1.0 | 5.0 | 0.00 | 0.00 | 0.00 | 75 | 1015.8 |
| 20260507015004 | 47 | 38 | 1.0 | 5.0 | 0.00 | 0.00 | 0.00 | 75 | 1015.8 |
| 20260507014509 | 47 | 30 | 1.0 | 5.0 | 0.00 | 0.00 | 0.00 | 76 | 1015.8 |
| 20260507014002 | 47 | 96 | 1.0 | 4.0 | 0.00 | 0.00 | 0.00 | 76 | 1015.8 |
| 20260507013504 | 47 | 352 | 0.0 | 4.0 | 0.00 | 0.00 | 0.00 | 76 | 1015.7 |
| 20260507013012 | 47 | 38 | 0.0 | 4.0 | 0.00 | 0.00 | 0.00 | 75 | 1015.7 |
| 20260507012505 | 47 | 29 | 1.0 | 4.0 | 0.00 | 0.00 | 0.00 | 75 | 1015.8 |
| 20260507012003 | 47 | 96 | 1.0 | 3.0 | 0.00 | 0.00 | 0.00 | 75 | 1015.8 |
| 20260507011516 | 47 | 38 | 0.0 | 4.0 | 0.00 | 0.00 | 0.00 | 76 | 1015.7 |
| 20260507011006 | 47 | 69 | 1.0 | 4.0 | 0.00 | 0.00 | 0.00 | 76 | 1015.7 |
| 20260507010504 | 47 | 339 | 1.0 | 4.0 | 0.00 | 0.00 | 0.00 | 76 | 1015.7 |
| 20260507010023 | 48 | 82 | 1.0 | 4.0 | 0.00 | 0.00 | 0.00 | 76 | 1015.7 |
| 20260507005507 | 47 | 36 | 0.0 | 3.0 | 0.00 | 0.00 | 0.00 | 76 | 1015.7 |
| 20260507005012 | 47 | 46 | 0.0 | 3.0 | 0.00 | 0.00 | 0.00 | 76 | 1015.6 |
| 20260507004503 | 47 | 59 | 0.0 | 2.0 | 0.00 | 0.00 | 0.00 | 76 | 1015.7 |
| 20260507004003 | 48 | 46 | 0.0 | 3.0 | 0.00 | 0.00 | 0.00 | 75 | 1015.6 |
| 20260507003503 | 48 | 75 | 0.0 | 4.0 | 0.00 | 0.00 | 0.00 | 75 | 1015.7 |
| 20260507003009 | 48 | 62 | 1.0 | 4.0 | 0.00 | 0.00 | 0.00 | 75 | 1015.6 |
| 20260507002503 | 48 | 42 | 1.0 | 4.0 | 0.00 | 0.00 | 0.00 | 75 | 1015.6 |
| 20260507002004 | 48 | 68 | 1.0 | 6.0 | 0.00 | 0.00 | 0.00 | 75 | 1015.6 |
| 20260507001512 | 48 | 55 | 2.0 | 6.0 | 0.00 | 0.00 | 0.00 | 75 | 1015.6 |
| 20260507001004 | 48 | 112 | 1.0 | 4.0 | 0.00 | 0.00 | 0.00 | 76 | 1015.6 |
| 20260507000503 | 48 | 29 | 0.0 | 4.0 | 0.00 | 0.00 | 0.00 | 76 | 1015.7 |
| 20260507000020 | 48 | 61 | 1.0 | 5.0 | 0.00 | 0.00 | 0.00 | 75 | 1015.7 |
| 20260506235507 | 48 | 78 | 2.0 | 8.0 | 0.00 | 0.00 | 0.00 | 75 | 1015.7 |
| 20260506235007 | 48 | 63 | 1.0 | 8.0 | 0.00 | 0.00 | 0.00 | 74 | 1015.7 |
| 20260506234518 | 48 | 51 | 0.0 | 6.0 | 0.00 | 0.00 | 0.00 | 74 | 1015.7 |
| 20260506234007 | 49 | 63 | 2.0 | 6.0 | 0.00 | 0.00 | 0.00 | 74 | 1015.6 |
| 20260506233503 | 49 | 74 | 1.0 | 6.0 | 0.00 | 0.00 | 0.00 | 75 | 1015.6 |
| 20260506233006 | 49 | 110 | 1.0 | 6.0 | 0.00 | 0.00 | 0.00 | 74 | 1015.7 |
| 20260506232502 | 49 | 59 | 2.0 | 6.0 | 0.00 | 0.00 | 0.00 | 74 | 1015.7 |
| 20260506232003 | 49 | 54 | 1.0 | 6.0 | 0.00 | 0.00 | 0.00 | 75 | 1015.6 |
| 20260506231512 | 49 | 90 | 2.0 | 6.0 | 0.00 | 0.00 | 0.00 | 76 | 1015.7 |
| 20260506231004 | 49 | 49 | 1.0 | 6.0 | 0.00 | 0.00 | 0.00 | 76 | 1015.7 |
| 20260506230504 | 49 | 52 | 0.0 | 4.0 | 0.00 | 0.00 | 0.00 | 77 | 1015.7 |
| 20260506230016 | 48 | 65 | 0.0 | 3.0 | 0.00 | 0.00 | 0.00 | 77 | 1015.7 |
| 20260506225504 | 48 | 56 | 1.0 | 5.0 | 0.00 | 0.00 | 0.00 | 77 | 1015.7 |
| 20260506225003 | 48 | 33 | 1.0 | 5.0 | 0.00 | 0.00 | 0.00 | 77 | 1015.7 |
| 20260506224520 | 48 | 5 | 1.0 | 4.0 | 0.00 | 0.00 | 0.00 | 77 | 1015.6 |
| 20260506224004 | 49 | 11 | 1.0 | 4.0 | 0.00 | 0.00 | 0.00 | 77 | 1015.7 |
| 20260506223506 | 49 | 36 | 1.0 | 6.0 | 0.00 | 0.00 | 0.00 | 77 | 1015.6 |
| 20260506223024 | 49 | 32 | 1.0 | 6.0 | 0.00 | 0.00 | 0.00 | 77 | 1015.6 |
| 20260506222508 | 49 | 101 | 1.0 | 6.0 | 0.00 | 0.00 | 0.00 | 77 | 1015.5 |
| 20260506222008 | 49 | 63 | 1.0 | 6.0 | 0.00 | 0.00 | 0.00 | 77 | 1015.6 |
| 20260506221509 | 49 | 44 | 0.0 | 5.0 | 0.00 | 0.00 | 0.00 | 76 | 1015.5 |
| 20260506221003 | 49 | 34 | 1.0 | 4.0 | 0.00 | 0.00 | 0.00 | 76 | 1015.5 |
| 20260506220503 | 49 | 40 | 1.0 | 4.0 | 0.00 | 0.00 | 0.00 | 77 | 1015.4 |
| 20260506220023 | 49 | 61 | 1.0 | 8.0 | 0.00 | 0.00 | 0.00 | 77 | 1015.4 |
| 20260506215503 | 49 | 78 | 2.0 | 8.0 | 0.00 | 0.00 | 0.00 | 77 | 1015.5 |
| 20260506215007 | 49 | 52 | 2.0 | 5.0 | 0.00 | 0.00 | 0.00 | 77 | 1015.4 |
| 20260506214512 | 48 | 44 | 1.0 | 5.0 | 0.00 | 0.00 | 0.00 | 77 | 1015.4 |
| 20260506214006 | 48 | 43 | 1.0 | 5.0 | 0.00 | 0.00 | 0.00 | 77 | 1015.4 |
| 20260506213510 | 48 | 58 | 2.0 | 6.0 | 0.00 | 0.00 | 0.00 | 76 | 1015.4 |
| 20260506213010 | 48 | 53 | 2.0 | 7.0 | 0.00 | 0.00 | 0.00 | 76 | 1015.4 |
| 20260506212505 | 48 | 59 | 2.0 | 7.0 | 0.00 | 0.00 | 0.00 | 76 | 1015.4 |
| 20260506212011 | 48 | 80 | 1.0 | 5.0 | 0.00 | 0.00 | 0.00 | 76 | 1015.4 |
| 20260506211529 | 48 | 71 | 1.0 | 5.0 | 0.00 | 0.00 | 0.00 | 75 | 1015.3 |
| 20260506211003 | 48 | 37 | 1.0 | 4.0 | 0.00 | 0.00 | 0.00 | 75 | 1015.2 |
| 20260506210505 | 48 | 336 | 0.0 | 5.0 | 0.00 | 0.00 | 0.00 | 75 | 1015.2 |
| 20260506210010 | 49 | 44 | 1.0 | 7.0 | 0.00 | 0.00 | 0.00 | 75 | 1015.2 |
| 20260506205502 | 49 | 51 | 1.0 | 7.0 | 0.00 | 0.00 | 0.00 | 75 | 1015.1 |
| 20260506205002 | 49 | 128 | 2.0 | 5.0 | 0.00 | 0.00 | 0.00 | 74 | 1015.1 |
| 20260506204518 | 49 | 34 | 1.0 | 5.0 | 0.00 | 0.00 | 0.00 | 75 | 1015.1 |
| 20260506204008 | 49 | 69 | 2.0 | 5.0 | 0.00 | 0.00 | 0.00 | 75 | 1015.0 |
| 20260506203502 | 49 | 66 | 1.0 | 5.0 | 0.00 | 0.00 | 0.00 | 74 | 1015.0 |
| 20260506203027 | 49 | 40 | 1.0 | 9.0 | 0.00 | 0.00 | 0.00 | 74 | 1015.0 |
| 20260506202507 | 49 | 33 | 2.0 | 9.0 | 0.00 | 0.00 | 0.00 | 74 | 1015.0 |
| 20260506202010 | 49 | 348 | 1.0 | 5.0 | 0.00 | 0.00 | 0.00 | 73 | 1015.0 |
| 20260506201515 | 49 | 30 | 1.0 | 5.0 | 0.00 | 0.00 | 0.00 | 74 | 1015.1 |
| 20260506201008 | 49 | 25 | 1.0 | 5.0 | 0.00 | 0.00 | 0.00 | 74 | 1015.1 |
| 20260506200504 | 49 | 5 | 1.0 | 5.0 | 0.00 | 0.00 | 0.00 | 75 | 1015.0 |
| 20260506200010 | 49 | 326 | 2.0 | 6.0 | 0.00 | 0.00 | 0.00 | 75 | 1015.0 |
| 20260506195503 | 49 | 30 | 2.0 | 6.0 | 0.00 | 0.00 | 0.00 | 74 | 1015.0 |
| 20260506195003 | 49 | 78 | 2.0 | 5.0 | 0.00 | 0.00 | 0.00 | 75 | 1014.9 |
| 20260506194511 | 49 | 38 | 2.0 | 7.0 | 0.00 | 0.00 | 0.00 | 75 | 1015.0 |
| 20260506194006 | 49 | 19 | 2.0 | 10.0 | 0.00 | 0.00 | 0.00 | 75 | 1014.9 |
| 20260506193504 | 49 | 65 | 3.0 | 10.0 | 0.00 | 0.00 | 0.00 | 74 | 1014.8 |
| 20260506193004 | 49 | 54 | 2.0 | 5.0 | 0.00 | 0.00 | 0.00 | 74 | 1014.9 |
| 20260506192502 | 49 | 59 | 2.0 | 10.0 | 0.00 | 0.00 | 0.00 | 74 | 1014.7 |
| 20260506192007 | 50 | 153 | 2.0 | 10.0 | 0.00 | 0.00 | 0.00 | 74 | 1014.6 |
| 20260506191522 | 50 | 360 | 3.0 | 10.0 | 0.00 | 0.00 | 0.00 | 74 | 1014.6 |
| 20260506191003 | 50 | 346 | 2.0 | 8.0 | 0.00 | 0.00 | 0.00 | 74 | 1014.5 |
| 20260506190504 | 50 | 43 | 2.0 | 6.0 | 0.00 | 0.00 | 0.00 | 75 | 1014.5 |
| 20260506190008 | 50 | 40 | 2.0 | 8.0 | 0.00 | 0.00 | 0.00 | 75 | 1014.4 |
| 20260506185503 | 50 | 54 | 2.0 | 8.0 | 0.00 | 0.00 | 0.00 | 74 | 1014.4 |
| 20260506185003 | 50 | 52 | 2.0 | 6.0 | 0.00 | 0.00 | 0.00 | 74 | 1014.4 |
| 20260506184514 | 50 | 313 | 2.0 | 5.0 | 0.00 | 0.00 | 0.00 | 74 | 1014.3 |
| 20260506184004 | 50 | 49 | 1.0 | 5.0 | 0.00 | 0.00 | 0.00 | 74 | 1014.2 |
| 20260506183504 | 50 | 36 | 2.0 | 6.0 | 0.00 | 0.00 | 0.00 | 74 | 1014.1 |
| 20260506183014 | 50 | 105 | 1.0 | 6.0 | 0.00 | 0.00 | 0.00 | 74 | 1014.1 |
| 20260506182506 | 50 | 26 | 2.0 | 6.0 | 0.00 | 0.00 | 0.00 | 74 | 1014.1 |
| 20260506182003 | 50 | 49 | 2.0 | 6.0 | 0.00 | 0.00 | 0.00 | 73 | 1014.1 |
| 20260506181518 | 50 | 49 | 1.0 | 6.0 | 0.00 | 0.00 | 0.00 | 73 | 1014.0 |
| 20260506181007 | 50 | 90 | 1.0 | 6.0 | 0.00 | 0.00 | 0.00 | 73 | 1013.9 |
| 20260506180510 | 51 | 46 | 2.0 | 9.0 | 0.00 | 0.00 | 0.00 | 73 | 1013.8 |
| 20260506180014 | 51 | 49 | 2.0 | 9.0 | 0.00 | 0.00 | 0.00 | 72 | 1013.8 |
| 20260506175503 | 51 | 140 | 3.0 | 9.0 | 0.00 | 0.00 | 0.00 | 72 | 1013.8 |
| 20260506175007 | 51 | 26 | 2.0 | 9.0 | 0.00 | 0.00 | 0.00 | 72 | 1013.7 |
| 20260506174508 | 51 | 73 | 3.0 | 10.0 | 0.00 | 0.00 | 0.00 | 72 | 1013.6 |
| 20260506174004 | 52 | 352 | 2.0 | 11.0 | 0.00 | 0.00 | 0.00 | 72 | 1013.5 |
| 20260506173504 | 52 | 115 | 3.0 | 11.0 | 0.00 | 0.00 | 0.00 | 72 | 1013.5 |
| 20260506173014 | 52 | 91 | 3.0 | 8.0 | 0.00 | 0.00 | 0.00 | 71 | 1013.6 |
| 20260506172504 | 52 | 38 | 2.0 | 10.0 | 0.00 | 0.00 | 0.00 | 71 | 1013.5 |
| 20260506172004 | 53 | 112 | 3.0 | 10.0 | 0.00 | 0.00 | 0.00 | 69 | 1013.5 |
| 20260506171525 | 53 | 102 | 3.0 | 8.0 | 0.00 | 0.00 | 0.00 | 68 | 1013.5 |
| 20260506171007 | 54 | 110 | 3.0 | 10.0 | 0.00 | 0.00 | 0.00 | 68 | 1013.5 |
| 20260506170503 | 54 | 71 | 3.0 | 10.0 | 0.00 | 0.00 | 0.00 | 67 | 1013.6 |
| 20260506170020 | 54 | 60 | 4.0 | 10.0 | 0.00 | 0.00 | 0.00 | 65 | 1013.5 |
| 20260506165508 | 54 | 55 | 3.0 | 9.0 | 0.00 | 0.00 | 0.00 | 66 | 1013.5 |
| 20260506165003 | 55 | 59 | 4.0 | 10.0 | 0.00 | 0.00 | 0.00 | 65 | 1013.4 |
| 20260506164519 | 55 | 58 | 4.0 | 10.0 | 0.00 | 0.00 | 0.00 | 66 | 1013.5 |
| 20260506164008 | 55 | 100 | 3.0 | 11.0 | 0.00 | 0.00 | 0.00 | 66 | 1013.5 |
| 20260506163511 | 55 | 82 | 4.0 | 11.0 | 0.00 | 0.00 | 0.00 | 67 | 1013.5 |
| 20260506163008 | 55 | 123 | 3.0 | 9.0 | 0.00 | 0.00 | 0.00 | 68 | 1013.4 |
| 20260506162504 | 56 | 69 | 2.0 | 9.0 | 0.00 | 0.00 | 0.00 | 67 | 1013.5 |
| 20260506162004 | 56 | 89 | 3.0 | 9.0 | 0.00 | 0.00 | 0.00 | 67 | 1013.4 |
| 20260506161516 | 55 | 34 | 5.0 | 11.0 | 0.00 | 0.00 | 0.00 | 67 | 1013.3 |
| 20260506161003 | 55 | 140 | 3.0 | 11.0 | 0.00 | 0.00 | 0.00 | 68 | 1013.3 |
| 20260506160508 | 55 | 122 | 3.0 | 9.0 | 0.00 | 0.00 | 0.00 | 69 | 1013.3 |
| 20260506160032 | 55 | 134 | 3.0 | 10.0 | 0.00 | 0.00 | 0.00 | 68 | 1013.3 |
| 20260506155503 | 55 | 101 | 3.0 | 10.0 | 0.00 | 0.00 | 0.00 | 68 | 1013.3 |
| 20260506155010 | 55 | 9 | 4.0 | 10.0 | 0.00 | 0.00 | 0.00 | 67 | 1013.3 |
| 20260506154530 | 55 | 162 | 3.0 | 9.0 | 0.00 | 0.00 | 0.00 | 68 | 1013.3 |
| 20260506154011 | 56 | 66 | 3.0 | 9.0 | 0.00 | 0.00 | 0.00 | 66 | 1013.3 |
| 20260506153504 | 56 | 107 | 3.0 | 11.0 | 0.00 | 0.00 | 0.00 | 66 | 1013.3 |
| 20260506153023 | 56 | 111 | 5.0 | 10.0 | 0.00 | 0.00 | 0.00 | 65 | 1013.4 |
| 20260506152508 | 56 | 84 | 3.0 | 10.0 | 0.00 | 0.00 | 0.00 | 66 | 1013.3 |
| 20260506152004 | 56 | 360 | 3.0 | 10.0 | 0.00 | 0.00 | 0.00 | 67 | 1013.3 |
| 20260506151517 | 56 | 44 | 4.0 | 10.0 | 0.00 | 0.00 | 0.00 | 66 | 1013.3 |
| 20260506151004 | 56 | 53 | 5.0 | 10.0 | 0.00 | 0.00 | 0.00 | 65 | 1013.3 |
| 20260506150506 | 55 | 35 | 3.0 | 10.0 | 0.00 | 0.00 | 0.00 | 66 | 1013.2 |
| 20260506150026 | 55 | 30 | 4.0 | 10.0 | 0.00 | 0.00 | 0.00 | 65 | 1013.2 |
| 20260506145505 | 56 | 87 | 4.0 | 8.0 | 0.00 | 0.00 | 0.00 | 64 | 1013.3 |
| 20260506145008 | 56 | 74 | 3.0 | 9.0 | 0.00 | 0.00 | 0.00 | 66 | 1013.3 |
| 20260506144514 | 56 | 57 | 4.0 | 10.0 | 0.00 | 0.00 | 0.00 | 66 | 1013.3 |
| 20260506144018 | 56 | 70 | 3.0 | 10.0 | 0.00 | 0.00 | 0.00 | 66 | 1013.3 |
| 20260506143516 | 56 | 34 | 2.0 | 6.0 | 0.00 | 0.00 | 0.00 | 67 | 1013.2 |
| 20260506143040 | 56 | 308 | 3.0 | 9.0 | 0.00 | 0.00 | 0.00 | 66 | 1013.2 |
| 20260506142505 | 56 | 43 | 3.0 | 9.0 | 0.00 | 0.00 | 0.00 | 67 | 1013.2 |
| 20260506142006 | 56 | 94 | 4.0 | 9.0 | 0.00 | 0.00 | 0.00 | 66 | 1013.2 |
| 20260506141525 | 56 | 115 | 4.0 | 9.0 | 0.00 | 0.00 | 0.00 | 65 | 1013.2 |
| 20260506141007 | 56 | 117 | 4.0 | 9.0 | 0.00 | 0.00 | 0.00 | 65 | 1013.2 |
| 20260506140504 | 56 | 65 | 4.0 | 10.0 | 0.00 | 0.00 | 0.00 | 64 | 1013.2 |
| 20260506140014 | 56 | 92 | 3.0 | 10.0 | 0.00 | 0.00 | 0.00 | 67 | 1013.3 |
| 20260506135506 | 56 | 76 | 2.0 | 9.0 | 0.00 | 0.00 | 0.00 | 69 | 1013.3 |
| 20260506135004 | 55 | 40 | 1.0 | 9.0 | 0.00 | 0.00 | 0.00 | 71 | 1013.3 |
| 20260506134519 | 55 | 86 | 3.0 | 8.0 | 0.00 | 0.00 | 0.00 | 70 | 1013.3 |
| 20260506134008 | 54 | 105 | 1.0 | 11.0 | 0.00 | 0.00 | 0.00 | 72 | 1013.2 |
| 20260506133507 | 54 | 91 | 3.0 | 11.0 | 0.00 | 0.00 | 0.00 | 70 | 1013.3 |
| 20260506133023 | 55 | 78 | 4.0 | 10.0 | 0.00 | 0.00 | 0.00 | 68 | 1013.3 |
| 20260506132513 | 55 | 40 | 4.0 | 10.0 | 0.00 | 0.00 | 0.00 | 68 | 1013.2 |
| 20260506132014 | 56 | 113 | 3.0 | 10.0 | 0.00 | 0.00 | 0.00 | 68 | 1013.2 |
| 20260506131524 | 56 | 72 | 3.0 | 10.0 | 0.00 | 0.00 | 0.00 | 69 | 1013.1 |
| 20260506131008 | 56 | 53 | 4.0 | 10.0 | 0.00 | 0.00 | 0.00 | 67 | 1013.2 |
| 20260506130515 | 56 | 58 | 3.0 | 9.0 | 0.00 | 0.00 | 0.00 | 68 | 1013.1 |
| 20260506130030 | 57 | 307 | 3.0 | 9.0 | 0.00 | 0.00 | 0.00 | 67 | 1013.2 |
| 20260506125505 | 57 | 88 | 3.0 | 10.0 | 0.00 | 0.00 | 0.00 | 68 | 1013.1 |
| 20260506125003 | 57 | 48 | 2.0 | 10.0 | 0.00 | 0.00 | 0.00 | 66 | 1013.0 |
| 20260506124517 | 57 | 348 | 2.0 | 9.0 | 0.00 | 0.00 | 0.00 | 65 | 1013.1 |
| 20260506124004 | 57 | 90 | 2.0 | 9.0 | 0.00 | 0.00 | 0.00 | 66 | 1012.9 |
| 20260506123505 | 57 | 36 | 3.0 | 9.0 | 0.00 | 0.00 | 0.00 | 65 | 1013.0 |
| 20260506123022 | 57 | 198 | 3.0 | 10.0 | 0.00 | 0.00 | 0.00 | 66 | 1012.9 |
| 20260506122508 | 56 | 52 | 2.0 | 10.0 | 0.00 | 0.00 | 0.00 | 69 | 1012.9 |
| 20260506122012 | 56 | 76 | 3.0 | 7.0 | 0.00 | 0.00 | 0.00 | 68 | 1012.9 |
| 20260506121527 | 56 | 61 | 2.0 | 9.0 | 0.00 | 0.00 | 0.00 | 67 | 1012.8 |
| 20260506121010 | 56 | 333 | 2.0 | 10.0 | 0.00 | 0.00 | 0.00 | 68 | 1012.8 |
| 20260506120515 | 56 | 79 | 3.0 | 10.0 | 0.00 | 0.00 | 0.00 | 68 | 1012.8 |
| 20260506120022 | 56 | 93 | 2.0 | 10.0 | 0.00 | 0.00 | 0.00 | 67 | 1012.8 |
| 20260506115508 | 56 | 46 | 2.0 | 10.0 | 0.00 | 0.00 | 0.00 | 68 | 1012.8 |
| 20260506115013 | 56 | 105 | 2.0 | 8.0 | 0.00 | 0.00 | 0.00 | 67 | 1012.8 |
| 20260506114521 | 56 | 55 | 2.0 | 8.0 | 0.00 | 0.00 | 0.00 | 66 | 1012.8 |
| 20260506114007 | 56 | 57 | 2.0 | 8.0 | 0.00 | 0.00 | 0.00 | 68 | 1012.8 |
| 20260506113504 | 56 | 325 | 2.0 | 7.0 | 0.00 | 0.00 | 0.00 | 68 | 1012.8 |
| 20260506113020 | 55 | 100 | 1.0 | 9.0 | 0.00 | 0.00 | 0.00 | 69 | 1012.8 |
| 20260506112509 | 56 | 64 | 3.0 | 9.0 | 0.00 | 0.00 | 0.00 | 68 | 1012.8 |
| 20260506112011 | 56 | 254 | 1.0 | 8.0 | 0.00 | 0.00 | 0.00 | 68 | 1012.8 |
| 20260506111526 | 56 | 323 | 2.0 | 7.0 | 0.00 | 0.00 | 0.00 | 69 | 1012.8 |
| 20260506111005 | 56 | 89 | 3.0 | 6.0 | 0.00 | 0.00 | 0.00 | 69 | 1012.8 |
| 20260506110502 | 56 | 31 | 2.0 | 6.0 | 0.00 | 0.00 | 0.00 | 69 | 1012.8 |
| 20260506110007 | 56 | 44 | 2.0 | 6.0 | 0.00 | 0.00 | 0.00 | 70 | 1012.8 |
| 20260506105503 | 55 | 49 | 2.0 | 6.0 | 0.00 | 0.00 | 0.00 | 71 | 1012.7 |